Pogoda w Łodzi

0221 UTC 10 December 2018 EPLL 100200Z 25017KT 9999 -SHRA FEW007 BKN012CB 05/04 Q0997

Where pilots are born

  • Michele from Italy

    „The best”

  • Maciej from UK

    “Great place, good aircrafts and amazing atmosphere!!!”

  • Alan from Ireland

    “Fantastic flight school . Fleet of aircraft are exceptional . Instructors are second to none . I couldn't speak any higher...

22000+

Operations per year

1500+

Number of trained pilots

55+

Nationality students

Jak przystąpić do szkolenia ?